Location: Recife
(8.0585°S, 34.8848°W)
Time: 12:42:56
(UTC-03:00)

Vanguard 1 Rocket - Pass Details

Date: 21 April 2026
Orbit: 655 x 4212 km, 34.3° (Epoch: 12 May)

Event Time Altitude Azimuth Distance (km) Brightness Sun altitude
Rises 21:37:21 0° 304° (NW) 8,132 12.6 -64.9°
Reaches altitude 10° 21:51:36 10° 333° (NNW) 7,404 12.1 -68.3°
Maximum altitude 21:58:37 11° 349° (N) 7,185 11.9 -70.0°
Drops below altitude 10° 22:05:23 10° 5° (N) 7,086 11.9 -71.6°
Sets 22:17:57 0° 35° (NE) 7,303 12.0 -74.6°
